Location: Sungai Igah
(2.7333°N, 114.2500°E)
Time: 20:03:51
(UTC+00:00)

BLOCK DM-SL R/B - Pass Details

Date: 14 June 2021
Orbit: 675 x 35591 km, 0.2° (Epoch: 26 July)

Event Time Altitude Azimuth Distance (km) Brightness Sun altitude
Exits shadow 20:38:50 43° 250° (WSW) 1,380 4.3 -22.7°
Maximum altitude 20:40:32 68° 183° (S) 911 3.7 -22.3°
Drops below altitude 10° 20:44:20 10° 99° (E) 2,093 6.5 -21.4°
Sets 20:46:14 0° 96° (E) 3,055 7.6 -21.0°
